GW2134 Weather Reports


time (UTC)temp
F
wind
direction
speed
knots
gust
knots
rain 1hr
in
rain 24hr
in
rain mn
in
humidity
%
barometer
mb
20260904090104 86 106 0.0 2.6 0.00 0.00 0.00 46 1025.0
20260904084603 85 100 0.0 1.7 0.00 0.00 0.00 48 1025.0
20260904083100 84 0 0.0 2.6 0.00 0.00 0.00 49 1024.9
20260904081555 83 90 0.0 2.6 0.00 0.00 0.00 51 1024.8
20260904080054 81 0 0.0 2.6 0.00 0.00 0.00 53 1024.8
20260904074600 80 106 0.9 1.7 0.00 0.00 0.00 55 1024.7
20260904073058 78 103 0.0 1.7 0.00 0.00 0.00 59 1024.7
20260904071559 78 0 0.0 2.6 0.00 0.00 0.00 62 1024.8
20260904070059 77 89 0.0 1.7 0.00 0.00 0.00 65 1024.6
20260904064601 74 86 0.0 1.7 0.00 0.00 0.00 66 1024.6
20260904063116 73 82 0.0 1.7 0.00 0.00 0.00 68 1024.6
20260904061555 71 355 0.0 0.9 0.00 0.00 0.00 71 1024.5
20260904060055 70 0 0.0 1.7 0.00 0.00 0.00 69 1024.5
20260904054554 70 0 0.0 1.7 0.00 0.00 0.00 72 1024.5
20260904053058 70 0 0.9 2.6 0.00 0.00 0.00 71 1024.5
20260904051605 69 0 0.0 1.7 0.00 0.00 0.00 69 1024.3
20260904050058 69 5 1.7 2.6 0.00 0.00 0.00 70 1024.3
20260904044554 69 0 0.0 1.7 0.00 0.00 0.00 70 1024.2
20260904043103 69 0 0.0 1.7 0.00 0.00 0.00 70 1024.4
20260904041600 69 0 0.0 0.9 0.00 0.00 0.00 69 1024.4
20260904040105 69 0 0.0 3.5 0.00 0.00 0.00 70 1024.3
20260904034603 69 0 0.0 0.9 0.00 0.00 0.00 69 1024.3
20260904033059 70 0 0.0 2.6 0.00 0.00 0.00 69 1024.3
20260904031603 70 36 1.7 4.3 0.00 0.00 0.00 69 1024.4
20260904030103 70 5 0.9 2.6 0.00 0.00 0.00 69 1024.3
20260904024557 69 323 0.0 1.7 0.00 0.00 0.00 68 1024.4
20260904023104 70 319 1.7 3.5 0.00 0.00 0.00 69 1024.3
20260904021607 70 0 0.9 3.5 0.00 0.00 0.00 68 1024.3
20260904020101 70 325 1.7 4.3 0.00 0.00 0.00 70 1024.3
20260904014601 70 24 0.9 3.5 0.00 0.00 0.00 68 1024.4
20260904013052 70 19 0.0 1.7 0.00 0.00 0.00 68 1024.5
20260904011606 70 0 0.0 0.9 0.00 0.00 0.00 67 1024.5
20260904010058 70 0 1.7 4.3 0.00 0.00 0.00 67 1024.6
20260904004555 70 15 1.7 3.5 0.00 0.00 0.00 68 1024.6
20260904003053 70 0 0.0 0.0 0.00 0.00 0.00 67 1024.6
20260904001553 70 0 0.0 0.9 0.00 0.00 0.00 67 1024.6
20260904000120 70 323 0.9 3.5 0.00 0.00 0.00 67 1024.6
20260903234556 70 344 1.7 3.5 0.00 0.00 0.00 66 1024.6
20260903233103 70 17 1.7 4.3 0.00 0.00 0.00 66 1024.7
20260903231555 70 346 1.7 3.5 0.00 0.00 0.00 66 1024.6
20260903230110 71 9 0.9 4.3 0.00 0.00 0.00 66 1024.7
20260903224617 71 39 0.0 3.5 0.00 0.00 0.00 66 1024.5
20260903223059 71 355 0.0 5.2 0.00 0.00 0.00 65 1024.5
20260903221608 71 5 0.9 3.5 0.00 0.00 0.00 66 1024.6
20260903220057 71 0 0.0 1.7 0.00 0.00 0.00 65 1024.6
20260903214610 71 0 0.0 2.6 0.00 0.00 0.00 65 1024.6
20260903213102 71 11 3.5 7.0 0.00 0.00 0.00 64 1024.4
20260903211555 72 360 2.6 5.2 0.00 0.00 0.00 64 1024.5
20260903210128 71 9 1.7 3.5 0.00 0.00 0.00 64 1024.4
20260903204601 72 24 2.6 5.2 0.00 0.00 0.00 64 1024.4
20260903203110 72 22 0.0 3.5 0.00 0.00 0.00 63 1024.4
20260903201554 73 0 1.7 2.6 0.00 0.00 0.00 62 1024.5
20260903194559 73 9 3.5 5.2 0.00 0.00 0.00 61 1024.3
20260903193059 74 355 3.5 6.1 0.00 0.00 0.00 61 1024.4
20260903191559 74 252 1.7 5.2 0.00 0.00 0.00 60 1024.3
20260903184559 74 355 3.5 7.0 0.00 0.00 0.00 60 1024.2
20260903183103 74 360 2.6 6.1 0.00 0.00 0.00 61 1024.1
20260903181606 74 347 2.6 6.1 0.00 0.00 0.00 61 1023.8
20260903180105 75 17 3.5 6.1 0.00 0.00 0.00 61 1023.7
20260903174558 76 334 2.6 7.0 0.00 0.40 0.00 60 1023.5
20260903173103 76 331 3.5 4.3 0.00 0.40 0.00 58 1023.3
20260903171608 77 39 1.7 6.1 0.00 0.40 0.00 56 1023.2
20260903164614 79 267 0.9 3.5 0.00 0.40 0.00 52 1023.2
20260903163059 81 13 0.9 3.5 0.00 0.40 0.00 49 1023.1
20260903161603 83 9 0.9 2.6 0.00 0.40 0.00 47 1022.9
20260903160127 85 15 1.7 3.5 0.00 0.40 0.00 42 1022.9
20260903154606 87 355 0.9 3.5 0.00 0.40 0.00 38 1023.2
20260903153054 87 9 0.9 3.5 0.00 0.40 0.00 37 1023.3
20260903151602 87 343 1.7 5.2 0.00 0.40 0.00 41 1023.3
20260903150111 87 0 0.0 7.0 0.00 0.40 0.00 40 1023.3
20260903144606 87 338 0.9 4.3 0.00 0.40 0.00 40 1023.4
20260903143111 87 340 0.9 4.3 0.00 0.40 0.00 39 1023.2
20260903141613 87 19 1.7 8.7 0.00 0.40 0.00 38 1023.3
20260903140109 88 346 0.9 4.3 0.00 0.40 0.00 35 1023.4
20260903134558 88 315 0.9 7.0 0.00 0.40 0.00 39 1023.1
20260903133053 88 341 4.3 10.4 0.00 0.40 0.00 42 1023.3
20260903131603 88 0 2.6 7.8 0.00 0.40 0.00 42 1023.4
20260903130057 87 46 1.7 4.3 0.00 0.40 0.00 42 1023.5
20260903124555 87 110 1.7 7.0 0.00 0.40 0.00 44 1023.7
20260903123052 86 0 1.7 6.1 0.00 0.40 0.00 45 1023.6
20260903121558 85 0 1.7 7.8 0.00 0.40 0.00 48 1023.7
20260903120104 85 185 2.6 5.2 0.00 0.40 0.00 48 1023.8
20260903114606 85 150 1.7 6.1 0.00 0.40 0.00 47 1023.6
20260903113101 86 209 3.5 7.0 0.00 0.40 0.00 48 1023.7
20260903111554 85 103 0.0 5.2 0.00 0.40 0.00 49 1023.9
20260903104607 84 74 1.7 8.7 0.00 0.40 0.00 52 1024.2
20260903103104 83 114 2.6 7.8 0.00 0.40 0.00 53 1024.4
20260903101610 83 85 3.5 7.8 0.00 0.40 0.00 54 1024.6
20260903100103 83 191 1.7 6.1 0.00 0.40 0.00 55 1024.8
20260903094554 82 180 1.7 5.2 0.00 0.40 0.00 56 1024.8
20260903093112 82 148 0.9 6.1 0.00 0.40 0.00 57 1024.8
20260903091601 81 128 1.7 6.1 0.00 0.40 0.00 58 1024.9